This demonstration page uses our WeatherBlox Daily Observations layout. Learn more.

Left ArrowRight Arrow

44.8408, -93.29828

Hourly Observations for October 19, 2021

Temp ( °F °C ) Dew Point ( °F °C ) Humidity (%) Winds ( mph kmh ) Pressure ( in mb ) Visibility ( mi km ) Precip ( " mm )
12:53 am 00:53 Mostly Clear 60 15.6 40 4.4 47 47 S 9 15 29.94 1014 10 16 0.00 0.00
1:53 am 01:53 Mostly Clear 54 12.2 40 4.4 59 59 SSE 6 9 29.95 1014 10 16 0.00 0.00
2:53 am 02:53 Mostly Clear 53 11.7 40 4.4 61 61 ESE 5 7 29.94 1014 10 16 0.00 0.00
3:53 am 03:53 Mostly Clear 53 11.7 41 5 64 64 ESE 5 7 29.93 1013 10 16 0.00 0.00
4:53 am 04:53 Mostly Clear 51 10.6 41 5 69 69 SE 8 13 29.92 1013 10 16 0.00 0.00
5:53 am 05:53 Mostly Clear 51 10.6 41 5 69 69 SE 6 9 29.92 1013 10 16 0.00 0.00
6:53 am 06:53 Mostly Clear 51 10.6 41 5 69 69 SE 6 9 29.92 1013 10 16 0.00 0.00
7:53 am 07:53 Mostly Cloudy 53 11.7 42 5.6 66 66 SE 5 7 29.92 1013 10 16 0.00 0.00
8:53 am 08:53 Partly Cloudy 53 11.7 43 6.1 69 69 ESE 6 9 29.93 1013 10 16 0.00 0.00
9:53 am 09:53 Mostly Sunny 57 13.9 44 6.7 62 62 SSE 5 7 29.93 1014 10 16 0.00 0.00
10:53 am 10:53 Mostly Sunny 63 17.2 44 6.7 50 50 SSE 6 9 29.93 1014 10 16 0.00 0.00
11:53 am 11:53 Sunny 67 19.4 44 6.7 44 44 S 9 15 29.91 1013 10 16 0.00 0.00
12:53 pm 12:53 Sunny 69 20.6 44 6.7 41 41 S 7 11 29.90 1012 10 16 0.00 0.00
1:53 pm 13:53 Mostly Sunny 71 21.7 45 7.2 39 39 SSE 8 13 29.89 1012 10 16 0.00 0.00
2:53 pm 14:53 Mostly Sunny 72 22.2 45 7.2 38 38 SSW 5 7 29.88 1012 10 16 0.00 0.00
3:53 pm 15:53 Partly Cloudy 73 22.8 45 7.2 37 37 S 9 15 29.88 1012 10 16 0.00 0.00
4:53 pm 16:53 Partly Cloudy 74 23.3 45 7.2 36 36 Calm 29.87 1012 10 16 0.00 0.00
5:53 pm 17:53 Mostly Cloudy 73 22.8 46 7.8 38 38 Calm 29.88 1012 10 16 0.00 0.00
6:53 pm 18:53 Mostly Cloudy 70 21.1 46 7.8 42 42 NE 3 6 29.89 1012 10 16 0.00 0.00
7:53 pm 19:53 Mostly Cloudy 66 18.9 47 8.3 50 50 ENE 3 6 29.91 1013 10 16 0.00 0.00
8:53 pm 20:53 Mostly Cloudy 64 17.8 47 8.3 54 54 SSE 3 6 29.91 1013 10 16 0.00 0.00
9:53 pm 21:53 Mostly Cloudy 65 18.3 47 8.3 52 52 ESE 6 9 29.92 1013 10 16 0.00 0.00
10:53 pm 22:53 Mostly Cloudy 62 16.7 49 9.4 62 62 SSE 5 7 29.94 1014 10 16 0.00 0.00
11:53 pm 23:53 Partly Cloudy 61 16.1 47 8.3 60 60 Calm 29.93 1014 10 16 0.00 0.00

Powered by AerisWeather